Torna al catalogo

STARLINK-2630

AttivoComunicazioniVLEO
NORAD 48381·PAYLOAD·🇺🇸 United States

Lanciato May 4, 2021 da Cape Canaveral Space Force Station

Loading…

Prossimi Passaggi (prossime 24 ore)

TLE

AggiornatoSource: CelesTrak SupGP

Epoca: Sep 14, 2026, 14:09 UTC

1 48381C 21038AE  26257.59006944  .00017019  00000+0  54763-3 0  2579
2 48381  53.1591 189.2532 0001434  91.7108 266.8291 15.31673777    10

Traccia STARLINK-2630 in tempo reale con AllMySat

Download on the App Store